Location: Poughquag
(41.6090°N, 73.6820°W)
Time: 12:53:05
(UTC-04:00)

CUBESAT XI-V - Pass Details

Date: 18 July 2025
Orbit: 643 x 664 km, 98.3° (Epoch: 17 April)

Event Time Altitude Azimuth Distance (km) Brightness Sun altitude
Rises 01:36:22 0° 96° (E) 3,001 ? -26.9°
Enters shadow 02:44:27 -58° 165° (SSE) 11,529 ? -23.0°
Maximum altitude 03:16:26 60° 73° (ENE) 762 ? -20.0°
